Location: Kumla
(59.1265°N, 15.1401°E)
Time: 23:03:27
(UTC+01:00)

Transit 2A Rocket - All Passes

Search period start: 06 December 2023 00:00
Search period end: 16 December 2023 00:00
Orbit: 593 x 903 km, 66.7° (Epoch: 06 December)

Date Brightness Start Highest point End Pass type
(mag) Time Alt. Az. Time Alt. Az. Time Alt. Az.
06 Dec - 00:28:38 10° W 00:32:40 34° NNW 00:36:39 10° NE night (unlit)
06 Dec - 02:12:07 10° NW 02:16:04 33° NNE 02:20:01 10° ENE visible
06 Dec - 03:54:48 10° NW 03:59:08 69° NE 04:03:31 10° ESE visible
06 Dec - 05:37:30 10° WNW 05:41:20 31° WSW 05:45:15 10° S visible
06 Dec - 20:20:55 10° SSE 20:24:08 19° ESE 20:27:14 10° ENE night (unlit)
06 Dec - 22:01:28 10° SW 22:06:01 78° SE 22:10:21 10° NE night (unlit)
06 Dec - 23:44:36 10° W 23:48:47 39° NNW 23:52:53 10° NE night (unlit)
07 Dec - 01:28:15 10° WNW 01:32:09 31° N 01:36:02 10° ENE night (unlit)
07 Dec - 03:11:07 10° NW 03:15:22 52° NNE 03:19:40 10° ESE visible
07 Dec - 04:53:41 10° NW 04:57:50 47° SW 05:02:06 10° SSE visible
07 Dec - 06:38:48 10° W 06:39:18 10° WSW 06:39:49 10° WSW visible
07 Dec - 19:39:04 10° SE 19:40:49 12° ESE 19:42:33 10° E night (unlit)
07 Dec - 21:17:59 10° SSW 21:22:24 53° SE 21:26:39 10° NE night (unlit)
07 Dec - 23:00:37 10° WSW 23:04:57 49° NNW 23:09:10 10° NE night (unlit)
08 Dec - 00:44:18 10° WNW 00:48:13 30° N 00:52:04 10° ENE night (unlit)
08 Dec - 02:27:25 10° NW 02:31:33 41° NNE 02:35:42 10° E visible
08 Dec - 04:09:57 10° NW 04:14:16 70° SW 04:18:41 10° SE visible
08 Dec - 05:53:18 10° WNW 05:56:03 17° WSW 05:58:50 10° SSW visible
08 Dec - 20:34:45 10° S 20:38:53 35° SE 20:42:52 10° ENE night (unlit)
08 Dec - 22:16:43 10° WSW 22:21:10 64° NW 22:25:29 10° NE night (unlit)
09 Dec - 00:00:18 10° WNW 00:04:16 32° N 00:08:11 10° NE night (unlit)
09 Dec - 01:43:40 10° NW 01:47:40 35° NNE 01:51:42 10° E night (unlit)
09 Dec - 03:26:17 10° NW 03:30:37 82° NE 03:35:03 10° SE visible
09 Dec - 05:09:06 10° WNW 05:12:41 25° WSW 05:16:20 10° S visible
09 Dec - 19:51:51 10° S 19:55:27 23° ESE 19:58:56 10° ENE night (unlit)
09 Dec - 21:32:57 10° SW 21:37:28 88° NNW 21:41:49 10° NE night (unlit)
09 Dec - 23:16:17 10° W 23:20:22 36° NNW 23:24:23 10° NE night (unlit)
10 Dec - 00:59:50 10° NW 01:03:45 31° N 01:07:40 10° ENE night (unlit)
10 Dec - 02:42:36 10° NW 02:46:54 60° NNE 02:51:16 10° ESE night (unlit)
10 Dec - 04:25:13 10° WNW 04:29:14 38° SW 04:33:22 10° SSE visible
10 Dec - 19:09:29 10° SSE 19:12:06 15° ESE 19:14:39 10° ENE night (unlit)
10 Dec - 20:49:22 10° SW 20:53:49 65° SE 20:58:08 10° NE night (unlit)
10 Dec - 22:32:15 10° W 22:36:30 43° NNW 22:40:38 10° NE night (unlit)
11 Dec - 00:15:56 10° WNW 00:19:49 30° N 00:23:41 10° ENE night (unlit)
11 Dec - 01:58:55 10° NW 02:03:06 46° NNE 02:07:20 10° E night (unlit)
11 Dec - 03:41:27 10° NW 03:45:41 57° SW 03:50:05 10° SSE visible
11 Dec - 05:25:17 10° W 05:27:20 13° WSW 05:29:24 10° SW visible
11 Dec - 20:05:59 10° SSW 20:10:16 43° SE 20:14:23 10° NE night (unlit)
11 Dec - 21:48:18 10° WSW 21:52:41 55° NNW 21:56:57 10° NE night (unlit)
11 Dec - 23:31:58 10° WNW 23:35:52 31° N 23:39:45 10° ENE night (unlit)
12 Dec - 01:15:11 10° NW 01:19:15 38° NNE 01:23:20 10° E night (unlit)
12 Dec - 02:57:44 10° NW 03:02:05 84° SW 03:06:33 10° SE night (unlit)
12 Dec - 04:40:46 10° WNW 04:44:00 20° WSW 04:47:18 10° SSW night (unlit)
12 Dec - 19:22:54 10° S 19:26:47 29° ESE 19:30:33 10° ENE night (unlit)
12 Dec - 21:04:28 10° WSW 21:08:56 75° NW 21:13:16 10° NE night (unlit)
12 Dec - 22:47:56 10° W 22:51:57 34° NNW 22:55:55 10° NE night (unlit)
13 Dec - 00:31:24 10° NW 00:35:21 33° NNE 00:39:19 10° ENE night (unlit)
13 Dec - 02:14:04 10° NW 02:18:23 70° NE 02:22:49 10° ESE night (unlit)
13 Dec - 03:56:46 10° WNW 04:00:35 31° WSW 04:04:32 10° S night (unlit)
13 Dec - 18:40:13 10° SSE 18:43:23 19° ESE 18:46:28 10° ENE visible
13 Dec - 20:20:47 10° SW 20:25:16 79° SE 20:29:36 10° NE night (unlit)
13 Dec - 22:03:54 10° W 22:08:03 39° NNW 22:12:07 10° NE night (unlit)
13 Dec - 23:47:32 10° WNW 23:51:25 31° N 23:55:18 10° ENE night (unlit)
14 Dec - 01:30:23 10° NW 01:34:38 52° NNE 01:38:57 10° ESE night (unlit)
14 Dec - 03:12:56 10° NW 03:17:05 46° SW 03:21:24 10° SSE night (unlit)
14 Dec - 04:58:03 10° W 04:58:34 10° WSW 04:59:07 10° WSW night (unlit)
14 Dec - 17:58:21 10° SE 18:00:05 12° ESE 18:01:47 10° E visible
14 Dec - 19:37:17 10° SSW 19:41:39 53° SE 19:45:53 10° NE visible
14 Dec - 21:19:55 10° WSW 21:24:12 48° NNW 21:28:24 10° NE night (unlit)
14 Dec - 23:03:35 10° WNW 23:07:27 30° N 23:11:20 10° ENE night (unlit)
15 Dec - 00:46:41 10° NW 00:50:48 41° NNE 00:54:59 10° E night (unlit)
15 Dec - 02:29:12 10° NW 02:33:31 70° SW 02:37:58 10° SE night (unlit)
15 Dec - 04:12:32 10° WNW 04:15:17 17° WSW 04:18:07 10° SSW night (unlit)
15 Dec - 18:54:02 10° S 18:58:07 35° SE 19:02:05 10° ENE visible
15 Dec - 20:36:00 10° WSW 20:40:25 63° NW 20:44:43 10° NE visible
15 Dec - 22:19:35 10° WNW 22:23:32 32° N 22:27:26 10° NE night (unlit)
